ROBUSTA 1B (42792 NORAD) Tracking and Keplerian Element Data

This shows tracking and keplerian element data for the satellite.

Feedback or suggestion? Click here.




ElementValue
Catalog42792
NameROBUSTA 1B
Epoch Orbit34420
Epoch Day238.63036851
Epoch Year2023
RAAN280.0232
Inclination97.1329
Eccentricity0.0006658
Argument of Perigee167.4252
Mean Anonmoly192.7178
Mean Motion15.69380686
Decay Rate0.00150174
L11 42792U 17036AD 23238.63036851 .00150174 00000+0 12631-2 0 9993
L22 42792 97.1329 280.0232 0006658 167.4252 192.7178 15.69380686344206



Live tracking and technical data element details for ROBUSTA 1B (NORAD 42792). ROBUSTA 1B can be tracked NOW for your location showing map with azimuth and elevation plus other details from your city location.







IsCatalogInMostPopularTable: catalog: 42792, numindb: 565
Update: records affected: 1



GetName: 42792 ROBUSTA 1B

Hit Count: updated at: Thu, 23 Jan 2025 17:14:52 GMT